| time (UTC) | temp F | wind direction | speed MPH | gust MPH | rain 1hr in | rain 24hr in | rain mn in | humidity % | barometer mb |
| 20260506150055 | 78 | 138 | 2.0 | 5.0 | 0.00 | 0.00 | 0.00 | 91 | 1009.9 |
| 20260506144555 | 77 | 160 | 1.0 | 5.0 | 0.00 | 0.00 | 0.00 | 92 | 1009.6 |
| 20260506143049 | 77 | 159 | 4.0 | 6.0 | 0.00 | 0.00 | 0.00 | 93 | 1009.3 |
| 20260506141548 | 76 | 161 | 4.0 | 7.0 | 0.00 | 0.00 | 0.00 | 94 | 1009.2 |
| 20260506140046 | 76 | 146 | 3.0 | 6.0 | 0.00 | 0.00 | 0.00 | 95 | 1009.2 |
| 20260506134545 | 75 | 157 | 3.0 | 8.0 | 0.00 | 0.00 | 0.00 | 95 | 1009.3 |
| 20260506133058 | 75 | 149 | 2.0 | 5.0 | 0.00 | 0.00 | 0.00 | 95 | 1009.4 |
| 20260506131544 | 75 | 159 | 2.0 | 4.0 | 0.00 | 0.00 | 0.00 | 95 | 1009.5 |
| 20260506130042 | 75 | 153 | 2.0 | 4.0 | 0.00 | 0.00 | 0.00 | 95 | 1009.3 |
| 20260506124541 | 75 | 176 | 0.0 | 2.0 | 0.00 | 0.00 | 0.00 | 95 | 1009.2 |
| 20260506123039 | 75 | 166 | 0.0 | 0.0 | 0.00 | 0.00 | 0.00 | 95 | 1009.0 |
| 20260506121537 | 75 | 158 | 0.0 | 1.0 | 0.00 | 0.00 | 0.00 | 95 | 1009.0 |
| 20260506120036 | 75 | 171 | 0.0 | 3.0 | 0.00 | 0.00 | 0.00 | 95 | 1008.9 |
| 20260506114539 | 75 | 167 | 2.0 | 4.0 | 0.00 | 0.00 | 0.00 | 95 | 1008.9 |
| 20260506113034 | 75 | 150 | 2.0 | 6.0 | 0.00 | 0.00 | 0.00 | 95 | 1008.6 |
| 20260506111533 | 75 | 190 | 2.0 | 8.0 | 0.00 | 0.00 | 0.00 | 95 | 1008.7 |
| 20260506110039 | 75 | 184 | 3.0 | 7.0 | 0.00 | 0.00 | 0.00 | 95 | 1008.6 |
| 20260506104554 | 75 | 167 | 4.0 | 8.0 | 0.00 | 0.00 | 0.00 | 95 | 1008.4 |
| 20260506103038 | 75 | 186 | 5.0 | 9.0 | 0.00 | 0.00 | 0.00 | 95 | 1008.0 |
| 20260506101532 | 75 | 141 | 5.0 | 15.0 | 0.00 | 0.00 | 0.00 | 95 | 1007.8 |
| 20260506100039 | 75 | 171 | 4.0 | 10.0 | 0.00 | 0.00 | 0.00 | 95 | 1007.8 |
| 20260506094533 | 75 | 205 | 4.0 | 8.0 | 0.00 | 0.00 | 0.00 | 95 | 1007.8 |
| 20260506093027 | 75 | 191 | 3.0 | 6.0 | 0.00 | 0.00 | 0.00 | 95 | 1007.7 |
| 20260506091528 | 75 | 160 | 5.0 | 10.0 | 0.00 | 0.00 | 0.00 | 95 | 1007.4 |
| 20260506090025 | 75 | 161 | 4.0 | 9.0 | 0.00 | 0.00 | 0.00 | 95 | 1007.5 |
| 20260506084525 | 75 | 180 | 3.0 | 10.0 | 0.00 | 0.00 | 0.00 | 95 | 1007.6 |
| 20260506083036 | 75 | 157 | 5.0 | 14.0 | 0.00 | 0.00 | 0.00 | 95 | 1007.3 |
| 20260506081523 | 75 | 159 | 7.0 | 13.0 | 0.00 | 0.00 | 0.00 | 95 | 1007.4 |
| 20260506073015 | 75 | 171 | 6.0 | 11.0 | 0.00 | 0.00 | 0.00 | 94 | 1008.0 |
| 20260506071513 | 75 | 158 | 6.0 | 11.0 | 0.00 | 0.00 | 0.00 | 93 | 1008.2 |
| 20260506061506 | 76 | 171 | 7.0 | 13.0 | 0.00 | 0.00 | 0.00 | 92 | 1008.6 |
| 20260506044611 | 77 | 169 | 5.0 | 10.0 | 0.00 | 0.00 | 0.00 | 91 | 1008.6 |
| 20260506043058 | 77 | 155 | 7.0 | 13.0 | 0.00 | 0.00 | 0.00 | 90 | 1008.3 |
| 20260506041556 | 77 | 161 | 9.0 | 18.0 | 0.00 | 0.00 | 0.00 | 90 | 1008.1 |
| 20260506040054 | 77 | 166 | 8.0 | 14.0 | 0.00 | 0.00 | 0.00 | 90 | 1008.0 |
| 20260506034559 | 77 | 163 | 7.0 | 14.0 | 0.00 | 0.00 | 0.00 | 89 | 1008.0 |
| 20260506033054 | 77 | 163 | 7.0 | 11.0 | 0.00 | 0.00 | 0.00 | 89 | 1007.7 |
| 20260506031557 | 77 | 221 | 8.0 | 14.0 | 0.00 | 0.00 | 0.00 | 88 | 1007.7 |
| 20260506030052 | 77 | 204 | 6.0 | 10.0 | 0.00 | 0.00 | 0.00 | 88 | 1007.8 |
| 20260506024552 | 78 | 151 | 5.0 | 11.0 | 0.00 | 0.00 | 0.00 | 87 | 1007.5 |
| 20260506023054 | 78 | 161 | 5.0 | 10.0 | 0.00 | 0.00 | 0.00 | 87 | 1007.4 |
| 20260506021557 | 78 | 218 | 4.0 | 8.0 | 0.00 | 0.00 | 0.00 | 86 | 1007.3 |
| 20260506020050 | 78 | 196 | 5.0 | 9.0 | 0.00 | 0.00 | 0.00 | 86 | 1007.0 |
| 20260506014550 | 78 | 169 | 6.0 | 10.0 | 0.00 | 0.00 | 0.00 | 86 | 1006.8 |
| 20260506013049 | 79 | 156 | 4.0 | 10.0 | 0.00 | 0.00 | 0.00 | 85 | 1006.5 |
| 20260506011552 | 79 | 158 | 6.0 | 12.0 | 0.00 | 0.00 | 0.00 | 84 | 1006.2 |
| 20260506010054 | 79 | 167 | 4.0 | 11.0 | 0.00 | 0.00 | 0.00 | 84 | 1006.1 |
| 20260506004547 | 80 | 165 | 6.0 | 13.0 | 0.00 | 0.00 | 0.00 | 82 | 1005.9 |
| 20260506003047 | 80 | 144 | 5.0 | 14.0 | 0.00 | 0.00 | 0.00 | 82 | 1005.8 |
| 20260506001551 | 80 | 157 | 6.0 | 12.0 | 0.00 | 0.00 | 0.00 | 81 | 1005.9 |
| 20260506000045 | 80 | 175 | 9.0 | 14.0 | 0.00 | 0.00 | 0.00 | 81 | 1005.8 |
| 20260505234606 | 81 | 172 | 9.0 | 15.0 | 0.00 | 0.00 | 0.00 | 81 | 1005.8 |
| 20260505233049 | 81 | 208 | 5.0 | 14.0 | 0.00 | 0.00 | 0.00 | 80 | 1005.7 |
| 20260505231545 | 82 | 247 | 4.0 | 12.0 | 0.00 | 0.00 | 0.00 | 79 | 1005.7 |
| 20260505230047 | 81 | 221 | 6.0 | 14.0 | 0.00 | 0.00 | 0.00 | 78 | 1005.6 |
| 20260505224544 | 82 | 168 | 6.0 | 16.0 | 0.00 | 0.00 | 0.00 | 78 | 1005.7 |
| 20260505223053 | 82 | 147 | 8.0 | 16.0 | 0.00 | 0.00 | 0.00 | 78 | 1005.5 |
| 20260505221543 | 82 | 180 | 5.0 | 17.0 | 0.00 | 0.00 | 0.00 | 78 | 1005.4 |
| 20260505220043 | 83 | 198 | 5.0 | 15.0 | 0.00 | 0.00 | 0.00 | 78 | 1005.7 |
| 20260505214552 | 83 | 162 | 10.0 | 16.0 | 0.00 | 0.00 | 0.00 | 78 | 1005.7 |
| 20260505213038 | 83 | 176 | 7.0 | 17.0 | 0.00 | 0.00 | 0.00 | 78 | 1005.9 |
| 20260505211542 | 83 | 160 | 9.0 | 19.0 | 0.00 | 0.00 | 0.00 | 78 | 1006.2 |
| 20260505210034 | 83 | 171 | 8.0 | 17.0 | 0.00 | 0.00 | 0.00 | 77 | 1006.4 |
| 20260505204534 | 83 | 177 | 7.0 | 16.0 | 0.00 | 0.00 | 0.00 | 78 | 1006.5 |
| 20260505203049 | 84 | 167 | 8.0 | 17.0 | 0.00 | 0.00 | 0.00 | 75 | 1006.8 |
| 20260505201529 | 84 | 194 | 7.0 | 20.0 | 0.00 | 0.00 | 0.00 | 76 | 1007.0 |
| 20260505200027 | 83 | 230 | 10.0 | 19.0 | 0.00 | 0.00 | 0.00 | 77 | 1006.9 |
| 20260505194525 | 83 | 138 | 9.0 | 19.0 | 0.00 | 0.00 | 0.00 | 77 | 1007.4 |
| 20260505193024 | 83 | 167 | 8.0 | 19.0 | 0.00 | 0.00 | 0.00 | 77 | 1007.5 |
| 20260505191523 | 83 | 192 | 9.0 | 16.0 | 0.00 | 0.00 | 0.00 | 78 | 1007.7 |
| 20260505190019 | 82 | 236 | 7.0 | 16.0 | 0.00 | 0.00 | 0.00 | 80 | 1007.7 |
| 20260505184525 | 82 | 231 | 7.0 | 17.0 | 0.00 | 0.00 | 0.00 | 80 | 1007.8 |
| 20260505183021 | 81 | 161 | 8.0 | 21.0 | 0.00 | 0.00 | 0.00 | 82 | 1007.9 |
| 20260505181516 | 81 | 152 | 6.0 | 16.0 | 0.00 | 0.00 | 0.00 | 82 | 1008.1 |
| 20260505180014 | 81 | 201 | 5.0 | 16.0 | 0.00 | 0.00 | 0.00 | 81 | 1008.1 |
| 20260505174512 | 80 | 263 | 6.0 | 16.0 | 0.00 | 0.00 | 0.00 | 83 | 1008.3 |
| 20260505173010 | 79 | 221 | 7.0 | 13.0 | 0.00 | 0.00 | 0.00 | 83 | 1008.4 |
| 20260505171508 | 79 | 160 | 5.0 | 11.0 | 0.00 | 0.00 | 0.00 | 86 | 1008.4 |
| 20260505170010 | 78 | 94 | 5.0 | 15.0 | 0.00 | 0.00 | 0.00 | 85 | 1008.6 |
| 20260505164507 | 78 | 259 | 4.0 | 15.0 | 0.00 | 0.00 | 0.00 | 87 | 1008.6 |
| 20260505163004 | 78 | 205 | 9.0 | 17.0 | 0.00 | 0.00 | 0.00 | 87 | 1008.7 |
| 20260505161501 | 77 | 207 | 5.0 | 16.0 | 0.00 | 0.00 | 0.00 | 89 | 1008.7 |
| 20260505153056 | 75 | 175 | 4.0 | 12.0 | 0.00 | 0.00 | 0.00 | 90 | 1008.5 |
| 20260505151554 | 75 | 209 | 5.0 | 13.0 | 0.00 | 0.00 | 0.00 | 90 | 1008.3 |